Year,Month,Day,Hour,Minute,Value (Times are PST for temperature in C)
2013,04,24,00,00,5.80
2013,04,24,00,01,5.80
2013,04,24,00,02,5.80
2013,04,24,00,03,5.70
2013,04,24,00,04,5.70
2013,04,24,00,05,5.70
2013,04,24,00,06,5.70
2013,04,24,00,07,5.70
2013,04,24,00,08,5.70
2013,04,24,00,09,5.70
2013,04,24,00,10,5.70
2013,04,24,00,11,5.70
2013,04,24,00,12,5.70
2013,04,24,00,13,5.70
2013,04,24,00,14,5.70
2013,04,24,00,15,5.60
2013,04,24,00,16,5.60
2013,04,24,00,17,5.60
2013,04,24,00,18,5.60
2013,04,24,00,19,5.60
2013,04,24,00,20,5.60
2013,04,24,00,21,5.60
2013,04,24,00,22,5.60
2013,04,24,00,23,5.50
2013,04,24,00,24,5.50
2013,04,24,00,25,5.50
2013,04,24,00,26,5.50
2013,04,24,00,27,5.50
2013,04,24,00,28,5.50
2013,04,24,00,29,5.50
2013,04,24,00,30,5.50
2013,04,24,00,31,5.50
2013,04,24,00,32,5.50
2013,04,24,00,33,5.40
2013,04,24,00,34,5.40
2013,04,24,00,35,5.40
2013,04,24,00,36,5.40
2013,04,24,00,37,5.40
2013,04,24,00,38,5.40
2013,04,24,00,39,5.40
2013,04,24,00,40,5.40
2013,04,24,00,41,5.40
2013,04,24,00,42,5.50
2013,04,24,00,43,5.50
2013,04,24,00,44,5.60
2013,04,24,00,45,5.60
2013,04,24,00,46,5.50
2013,04,24,00,47,5.50
2013,04,24,00,48,5.40
2013,04,24,00,49,5.40
2013,04,24,00,50,5.40
2013,04,24,00,51,5.40
2013,04,24,00,52,5.40
2013,04,24,00,53,5.40
2013,04,24,00,54,5.40
2013,04,24,00,55,5.40
2013,04,24,00,56,5.40
2013,04,24,00,57,5.40
2013,04,24,00,58,5.30
2013,04,24,00,59,5.30
2013,04,24,01,00,5.30
2013,04,24,01,01,5.30
2013,04,24,01,02,5.30
2013,04,24,01,03,5.30
2013,04,24,01,04,5.20
2013,04,24,01,05,5.20
2013,04,24,01,06,5.20
2013,04,24,01,07,5.20
2013,04,24,01,08,5.20
2013,04,24,01,09,5.10
2013,04,24,01,10,5.20
2013,04,24,01,11,5.10
2013,04,24,01,12,5.10
2013,04,24,01,13,5.10
2013,04,24,01,14,5.10
2013,04,24,01,15,5.10
2013,04,24,01,16,5.20
2013,04,24,01,17,5.20
2013,04,24,01,18,5.20
2013,04,24,01,19,5.30
2013,04,24,01,20,5.30
2013,04,24,01,21,5.40
2013,04,24,01,22,5.60
2013,04,24,01,23,5.70
2013,04,24,01,24,5.80
2013,04,24,01,25,6.00
2013,04,24,01,26,6.20
2013,04,24,01,27,6.50
2013,04,24,01,28,6.90
2013,04,24,01,29,7.30
2013,04,24,01,30,7.70
2013,04,24,01,31,8.00
2013,04,24,01,32,8.30
2013,04,24,01,33,8.50
2013,04,24,01,34,8.80
2013,04,24,01,35,9.00
2013,04,24,01,36,9.20
2013,04,24,01,37,9.40
2013,04,24,01,38,9.60
2013,04,24,01,39,9.70
2013,04,24,01,40,9.80
2013,04,24,01,41,9.90
2013,04,24,01,42,10.00
2013,04,24,01,43,10.10
2013,04,24,01,44,10.30
2013,04,24,01,45,10.40
2013,04,24,01,46,10.50
2013,04,24,01,47,10.60
2013,04,24,01,48,10.60
2013,04,24,01,49,10.70
2013,04,24,01,50,10.70
2013,04,24,01,51,10.80
2013,04,24,01,52,10.90
2013,04,24,01,53,10.90
2013,04,24,01,54,11.00
2013,04,24,01,55,11.00
2013,04,24,01,56,11.10
2013,04,24,01,57,11.20
2013,04,24,01,58,11.20
2013,04,24,01,59,11.30
2013,04,24,02,00,11.30
2013,04,24,02,01,11.40
2013,04,24,02,02,11.40
2013,04,24,02,03,11.50
2013,04,24,02,04,11.50
2013,04,24,02,05,11.60
2013,04,24,02,06,11.60
2013,04,24,02,07,11.60
2013,04,24,02,08,11.50
2013,04,24,02,09,11.50
2013,04,24,02,10,11.40
2013,04,24,02,11,11.40
2013,04,24,02,12,11.40
2013,04,24,02,13,11.30
2013,04,24,02,14,11.30
2013,04,24,02,15,11.30
2013,04,24,02,16,11.30
2013,04,24,02,17,11.20
2013,04,24,02,18,11.20
2013,04,24,02,19,11.20
2013,04,24,02,20,11.10
2013,04,24,02,21,11.10
2013,04,24,02,22,11.00
2013,04,24,02,23,11.00
2013,04,24,02,24,11.00
2013,04,24,02,25,10.90
2013,04,24,02,26,10.90
2013,04,24,02,27,10.80
2013,04,24,02,28,10.80
2013,04,24,02,29,10.80
2013,04,24,02,30,10.80
2013,04,24,02,31,10.80
2013,04,24,02,32,10.70
2013,04,24,02,33,10.70
2013,04,24,02,34,10.70
2013,04,24,02,35,10.70
2013,04,24,02,36,10.70
2013,04,24,02,37,10.70
2013,04,24,02,38,10.60
2013,04,24,02,39,10.70
2013,04,24,02,40,10.70
2013,04,24,02,41,10.70
2013,04,24,02,42,10.60
2013,04,24,02,43,10.60
2013,04,24,02,44,10.60
2013,04,24,02,45,10.60
2013,04,24,02,46,10.60
2013,04,24,02,47,10.50
2013,04,24,02,48,10.50
2013,04,24,02,49,10.40
2013,04,24,02,50,10.40
2013,04,24,02,51,10.30
2013,04,24,02,52,10.30
2013,04,24,02,53,10.20
2013,04,24,02,54,10.20
2013,04,24,02,55,10.20
2013,04,24,02,56,10.20
2013,04,24,02,57,10.30
2013,04,24,02,58,10.30
2013,04,24,02,59,10.30
2013,04,24,03,00,10.40
2013,04,24,03,01,10.40
2013,04,24,03,02,10.40
2013,04,24,03,03,10.40
2013,04,24,03,04,10.50
2013,04,24,03,05,10.50
2013,04,24,03,06,10.50
2013,04,24,03,07,10.50
2013,04,24,03,08,10.50
2013,04,24,03,09,10.40
2013,04,24,03,10,10.40
2013,04,24,03,11,10.40
2013,04,24,03,12,10.40
2013,04,24,03,13,10.30
2013,04,24,03,14,10.30
2013,04,24,03,15,10.30
2013,04,24,03,16,10.20
2013,04,24,03,17,10.20
2013,04,24,03,18,10.20
2013,04,24,03,19,10.10
2013,04,24,03,20,10.00
2013,04,24,03,21,10.00
2013,04,24,03,22,9.90
2013,04,24,03,23,9.80
2013,04,24,03,24,9.70
2013,04,24,03,25,9.60
2013,04,24,03,26,9.50
2013,04,24,03,27,9.50
2013,04,24,03,28,9.40
2013,04,24,03,29,9.30
2013,04,24,03,30,9.20
2013,04,24,03,31,9.10
2013,04,24,03,32,9.00
2013,04,24,03,33,8.90
2013,04,24,03,34,8.90
2013,04,24,03,35,8.80
2013,04,24,03,36,8.80
2013,04,24,03,37,8.80
2013,04,24,03,38,8.80
2013,04,24,03,39,8.80
2013,04,24,03,40,8.90
2013,04,24,03,41,8.90
2013,04,24,03,42,8.90
2013,04,24,03,43,8.90
2013,04,24,03,44,8.90
2013,04,24,03,45,8.90
2013,04,24,03,46,9.00
2013,04,24,03,47,9.00
2013,04,24,03,48,9.00
2013,04,24,03,49,9.00
2013,04,24,03,50,9.00
2013,04,24,03,51,9.00
2013,04,24,03,52,9.00
2013,04,24,03,53,9.00
2013,04,24,03,54,9.00
2013,04,24,03,55,9.00
2013,04,24,03,56,9.00
2013,04,24,03,57,8.90
2013,04,24,03,58,8.90
2013,04,24,03,59,8.90
2013,04,24,04,00,8.90
2013,04,24,04,01,8.90
2013,04,24,04,02,8.90
2013,04,24,04,03,8.90
2013,04,24,04,04,8.90
2013,04,24,04,05,8.90
2013,04,24,04,06,8.90
2013,04,24,04,07,8.90
2013,04,24,04,08,8.90
2013,04,24,04,09,8.90
2013,04,24,04,10,8.80
2013,04,24,04,11,8.80
2013,04,24,04,12,8.80
2013,04,24,04,13,8.90
2013,04,24,04,14,8.90
2013,04,24,04,15,8.90
2013,04,24,04,16,8.90
2013,04,24,04,17,8.80
2013,04,24,04,18,8.80
2013,04,24,04,19,8.70
2013,04,24,04,20,8.70
2013,04,24,04,21,8.70
2013,04,24,04,22,8.60
2013,04,24,04,23,8.60
2013,04,24,04,24,8.50
2013,04,24,04,25,8.50
2013,04,24,04,26,8.40
2013,04,24,04,27,8.40
2013,04,24,04,28,8.30
2013,04,24,04,29,8.30
2013,04,24,04,30,8.30
2013,04,24,04,31,8.40
2013,04,24,04,32,8.40
2013,04,24,04,33,8.40
2013,04,24,04,34,8.40
2013,04,24,04,35,8.30
2013,04,24,04,36,8.30
2013,04,24,04,37,8.40
2013,04,24,04,38,8.40
2013,04,24,04,39,8.30
2013,04,24,04,40,8.30
2013,04,24,04,41,8.30
2013,04,24,04,42,8.20
2013,04,24,04,43,8.20
2013,04,24,04,44,8.10
2013,04,24,04,45,8.10
2013,04,24,04,46,8.10
2013,04,24,04,47,8.00
2013,04,24,04,48,8.00
2013,04,24,04,49,7.90
2013,04,24,04,50,7.90
2013,04,24,04,51,8.00
2013,04,24,04,52,8.00
2013,04,24,04,53,8.10
2013,04,24,04,54,8.10
2013,04,24,04,55,8.10
2013,04,24,04,56,8.10
2013,04,24,04,57,8.10
2013,04,24,04,58,8.20
2013,04,24,04,59,8.20
2013,04,24,05,00,8.20
2013,04,24,05,01,8.20
2013,04,24,05,02,8.20
2013,04,24,05,03,8.20
2013,04,24,05,04,8.20
2013,04,24,05,05,8.30
2013,04,24,05,06,8.30
2013,04,24,05,07,8.20
2013,04,24,05,08,8.20
2013,04,24,05,09,8.30
2013,04,24,05,10,8.30
2013,04,24,05,11,8.20
2013,04,24,05,12,8.20
2013,04,24,05,13,8.10
2013,04,24,05,14,8.10
2013,04,24,05,15,8.00
2013,04,24,05,16,7.90
2013,04,24,05,17,7.90
2013,04,24,05,18,7.80
2013,04,24,05,19,7.80
2013,04,24,05,20,7.70
2013,04,24,05,21,7.70
2013,04,24,05,22,7.70
2013,04,24,05,23,7.60
2013,04,24,05,24,7.50
2013,04,24,05,25,7.50
2013,04,24,05,26,7.40
2013,04,24,05,27,7.40
2013,04,24,05,28,7.40
2013,04,24,05,29,7.40
2013,04,24,05,30,7.40
2013,04,24,05,31,7.40
2013,04,24,05,32,7.40
2013,04,24,05,33,7.40
2013,04,24,05,34,7.40
2013,04,24,05,35,7.30
2013,04,24,05,36,7.30
2013,04,24,05,37,7.20
2013,04,24,05,38,7.20
2013,04,24,05,39,7.10
2013,04,24,05,40,7.10
2013,04,24,05,41,7.00
2013,04,24,05,42,7.00
2013,04,24,05,43,6.90
2013,04,24,05,44,6.90
2013,04,24,05,45,6.90
2013,04,24,05,46,6.80
2013,04,24,05,47,6.80
2013,04,24,05,48,6.80
2013,04,24,05,49,6.90
2013,04,24,05,50,7.00
2013,04,24,05,51,7.20
2013,04,24,05,52,7.40
2013,04,24,05,53,7.70
2013,04,24,05,54,7.90
2013,04,24,05,55,8.00
2013,04,24,05,56,8.20
2013,04,24,05,57,8.20
2013,04,24,05,58,8.20
2013,04,24,05,59,8.20
2013,04,24,06,00,8.30
2013,04,24,06,01,8.30
2013,04,24,06,02,8.40
2013,04,24,06,03,8.50
2013,04,24,06,04,8.60
2013,04,24,06,05,8.60
2013,04,24,06,06,8.70
2013,04,24,06,07,8.80
2013,04,24,06,08,8.80
2013,04,24,06,09,8.80
2013,04,24,06,10,8.80
2013,04,24,06,11,8.80
2013,04,24,06,12,8.80
2013,04,24,06,13,8.80
2013,04,24,06,14,8.80
2013,04,24,06,15,8.80
2013,04,24,06,16,8.90
2013,04,24,06,17,9.00
2013,04,24,06,18,9.00
2013,04,24,06,19,9.00
2013,04,24,06,20,9.00
2013,04,24,06,21,9.10
2013,04,24,06,22,9.10
2013,04,24,06,23,9.10
2013,04,24,06,24,9.10
2013,04,24,06,25,9.10
2013,04,24,06,26,9.10
2013,04,24,06,27,9.10
2013,04,24,06,28,9.10
2013,04,24,06,29,9.10
2013,04,24,06,30,9.10
2013,04,24,06,31,9.10
2013,04,24,06,32,9.10
2013,04,24,06,33,9.10
2013,04,24,06,34,9.20
2013,04,24,06,35,9.20
2013,04,24,06,36,9.20
2013,04,24,06,37,9.20
2013,04,24,06,38,9.20
2013,04,24,06,39,9.20
2013,04,24,06,40,9.20
2013,04,24,06,41,9.30
2013,04,24,06,42,9.30
2013,04,24,06,43,9.30
2013,04,24,06,44,9.30
2013,04,24,06,45,9.30
2013,04,24,06,46,9.30
2013,04,24,06,47,9.30
2013,04,24,06,48,9.20
2013,04,24,06,49,9.20
2013,04,24,06,50,9.10
2013,04,24,06,51,9.10
2013,04,24,06,52,9.00
2013,04,24,06,53,8.90
2013,04,24,06,54,8.90
2013,04,24,06,55,8.80
2013,04,24,06,56,8.80
2013,04,24,06,57,8.80
2013,04,24,06,58,8.80
2013,04,24,06,59,8.80
2013,04,24,07,00,8.80
2013,04,24,07,01,8.80
2013,04,24,07,02,8.70
2013,04,24,07,03,8.70
2013,04,24,07,04,8.70
2013,04,24,07,05,8.70
2013,04,24,07,06,8.70
2013,04,24,07,07,8.70
2013,04,24,07,08,8.70
2013,04,24,07,09,8.70
2013,04,24,07,10,8.80
2013,04,24,07,11,8.80
2013,04,24,07,12,8.90
2013,04,24,07,13,9.00
2013,04,24,07,14,9.00
2013,04,24,07,15,9.10
2013,04,24,07,16,9.10
2013,04,24,07,17,9.20
2013,04,24,07,18,9.20
2013,04,24,07,19,9.30
2013,04,24,07,20,9.30
2013,04,24,07,21,9.40
2013,04,24,07,22,9.50
2013,04,24,07,23,9.60
2013,04,24,07,24,9.60
2013,04,24,07,25,9.60
2013,04,24,07,26,9.60
2013,04,24,07,27,9.60
2013,04,24,07,28,9.70
2013,04,24,07,29,9.70
2013,04,24,07,30,9.80
2013,04,24,07,31,9.80
2013,04,24,07,32,9.90
2013,04,24,07,33,10.00
2013,04,24,07,34,10.10
2013,04,24,07,35,10.10
2013,04,24,07,36,10.20
2013,04,24,07,37,10.30
2013,04,24,07,38,10.40
2013,04,24,07,39,10.50
2013,04,24,07,40,10.60
2013,04,24,07,41,10.70
2013,04,24,07,42,10.80
2013,04,24,07,43,10.90
2013,04,24,07,44,10.90
2013,04,24,07,45,11.00
2013,04,24,07,46,11.10
2013,04,24,07,47,11.20
2013,04,24,07,48,11.30
2013,04,24,07,49,11.40
2013,04,24,07,50,11.50
2013,04,24,07,51,11.60
2013,04,24,07,52,11.60
2013,04,24,07,53,11.70
2013,04,24,07,54,11.70
2013,04,24,07,55,11.80
2013,04,24,07,56,11.80
2013,04,24,07,57,11.80
2013,04,24,07,58,11.90
2013,04,24,07,59,11.90
2013,04,24,08,00,11.90
2013,04,24,08,01,11.90
2013,04,24,08,02,11.90
2013,04,24,08,03,11.90
2013,04,24,08,04,11.90
2013,04,24,08,05,11.90
2013,04,24,08,06,11.90
2013,04,24,08,07,11.90
2013,04,24,08,08,11.90
2013,04,24,08,09,12.00
2013,04,24,08,10,12.00
2013,04,24,08,11,12.00
2013,04,24,08,12,12.00
2013,04,24,08,13,12.10
2013,04,24,08,14,12.10
2013,04,24,08,15,12.10
2013,04,24,08,16,12.10
2013,04,24,08,17,12.10
2013,04,24,08,18,12.10
2013,04,24,08,19,12.10
2013,04,24,08,20,12.10
2013,04,24,08,21,12.20
2013,04,24,08,22,12.20
2013,04,24,08,23,12.20
2013,04,24,08,24,12.20
2013,04,24,08,25,12.20
2013,04,24,08,26,12.20
2013,04,24,08,27,12.30
2013,04,24,08,28,12.30
2013,04,24,08,29,12.30
2013,04,24,08,30,12.30
2013,04,24,08,31,12.30
2013,04,24,08,32,12.30
2013,04,24,08,33,12.30
2013,04,24,08,34,12.30
2013,04,24,08,35,12.30
2013,04,24,08,36,12.30
2013,04,24,08,37,12.30
2013,04,24,08,38,12.30
2013,04,24,08,39,12.30
2013,04,24,08,40,12.30
2013,04,24,08,41,12.40
2013,04,24,08,42,12.40
2013,04,24,08,43,12.40
2013,04,24,08,44,12.40
2013,04,24,08,45,12.40
2013,04,24,08,46,12.40
2013,04,24,08,47,12.40
2013,04,24,08,48,12.50
2013,04,24,08,49,12.60
2013,04,24,08,50,12.60
2013,04,24,08,51,12.60
2013,04,24,08,52,12.70
2013,04,24,08,53,12.70
2013,04,24,08,54,12.70
2013,04,24,08,55,12.70
2013,04,24,08,56,12.70
2013,04,24,08,57,12.70
2013,04,24,08,58,12.70
2013,04,24,08,59,12.70
2013,04,24,09,00,12.60
2013,04,24,09,01,12.60
2013,04,24,09,02,12.60
2013,04,24,09,03,12.50
2013,04,24,09,04,12.40
2013,04,24,09,05,12.40
2013,04,24,09,06,12.40
2013,04,24,09,07,12.40
2013,04,24,09,08,12.40
2013,04,24,09,09,12.40
2013,04,24,09,10,12.40
2013,04,24,09,11,12.40
2013,04,24,09,12,12.40
2013,04,24,09,13,12.50
2013,04,24,09,14,12.60
2013,04,24,09,15,12.60
2013,04,24,09,16,12.60
2013,04,24,09,17,12.60
2013,04,24,09,18,12.60
2013,04,24,09,19,12.60
2013,04,24,09,20,12.60
2013,04,24,09,21,12.50
2013,04,24,09,22,12.40
2013,04,24,09,23,12.40
2013,04,24,09,24,12.40
2013,04,24,09,25,12.40
2013,04,24,09,26,12.40
2013,04,24,09,27,12.40
2013,04,24,09,28,12.40
2013,04,24,09,29,12.50
2013,04,24,09,30,12.60
2013,04,24,09,31,12.60
2013,04,24,09,32,12.60
2013,04,24,09,33,12.60
2013,04,24,09,34,12.60
2013,04,24,09,35,12.60
2013,04,24,09,36,12.60
2013,04,24,09,37,12.70
2013,04,24,09,38,12.70
2013,04,24,09,39,12.70
2013,04,24,09,40,12.70
2013,04,24,09,41,12.80
2013,04,24,09,42,12.80
2013,04,24,09,43,12.80
2013,04,24,09,44,12.90
2013,04,24,09,45,12.90
2013,04,24,09,46,12.90
2013,04,24,09,47,12.90
2013,04,24,09,48,12.90
2013,04,24,09,49,12.90
2013,04,24,09,50,12.80
2013,04,24,09,51,12.80
2013,04,24,09,52,12.90
2013,04,24,09,53,12.90
2013,04,24,09,54,13.00
2013,04,24,09,55,13.10
2013,04,24,09,56,13.10
2013,04,24,09,57,13.10
2013,04,24,09,58,13.10
2013,04,24,09,59,13.20
2013,04,24,10,00,13.20
2013,04,24,10,01,13.30
2013,04,24,10,02,13.30
2013,04,24,10,03,13.30
2013,04,24,10,04,13.20
2013,04,24,10,05,13.20
2013,04,24,10,06,13.20
2013,04,24,10,07,13.20
2013,04,24,10,08,13.10
2013,04,24,10,09,13.10
2013,04,24,10,10,13.10
2013,04,24,10,11,13.00
2013,04,24,10,12,13.00
2013,04,24,10,13,13.00
2013,04,24,10,14,13.10
2013,04,24,10,15,13.10
2013,04,24,10,16,13.20
2013,04,24,10,17,13.20
2013,04,24,10,18,13.30
2013,04,24,10,19,13.30
2013,04,24,10,20,13.20
2013,04,24,10,21,13.10
2013,04,24,10,22,13.10
2013,04,24,10,23,13.10
2013,04,24,10,24,13.10
2013,04,24,10,25,13.20
2013,04,24,10,26,13.20
2013,04,24,10,27,13.30
2013,04,24,10,28,13.30
2013,04,24,10,29,13.40
2013,04,24,10,30,13.40
2013,04,24,10,31,13.50
2013,04,24,10,32,13.50
2013,04,24,10,33,13.50
2013,04,24,10,34,13.50
2013,04,24,10,35,13.50
2013,04,24,10,36,13.50
2013,04,24,10,37,13.50
2013,04,24,10,38,13.50
2013,04,24,10,39,13.50
2013,04,24,10,40,13.50
2013,04,24,10,41,13.50
2013,04,24,10,42,13.50
2013,04,24,10,43,13.50
2013,04,24,10,44,13.50
2013,04,24,10,45,13.50
2013,04,24,10,46,13.50
2013,04,24,10,47,13.50
2013,04,24,10,48,13.50
2013,04,24,10,49,13.50
2013,04,24,10,50,13.50
2013,04,24,10,51,13.60
2013,04,24,10,52,13.60
2013,04,24,10,53,13.70
2013,04,24,10,54,13.70
2013,04,24,10,55,13.70
2013,04,24,10,56,13.70
2013,04,24,10,57,13.70
2013,04,24,10,58,13.70
2013,04,24,10,59,13.70
2013,04,24,11,00,13.70
2013,04,24,11,01,13.70
2013,04,24,11,02,13.60
2013,04,24,11,03,13.40
2013,04,24,11,04,13.30
2013,04,24,11,05,13.20
2013,04,24,11,06,13.10
2013,04,24,11,07,13.00
2013,04,24,11,08,13.00
2013,04,24,11,09,12.90
2013,04,24,11,10,13.00
2013,04,24,11,11,13.00
2013,04,24,11,12,13.00
2013,04,24,11,13,13.00
2013,04,24,11,14,13.10
2013,04,24,11,15,13.10
2013,04,24,11,16,13.10
2013,04,24,11,17,13.20
2013,04,24,11,18,13.30
2013,04,24,11,19,13.40
2013,04,24,11,20,13.50
2013,04,24,11,21,13.60
2013,04,24,11,22,13.70
2013,04,24,11,23,13.80
2013,04,24,11,24,13.90
2013,04,24,11,25,14.00
2013,04,24,11,26,14.00
2013,04,24,11,27,14.10
2013,04,24,11,28,14.10
2013,04,24,11,29,14.10
2013,04,24,11,30,14.10
2013,04,24,11,31,14.20
2013,04,24,11,32,14.20
2013,04,24,11,33,14.20
2013,04,24,11,34,14.20
2013,04,24,11,35,14.20
2013,04,24,11,36,14.20
2013,04,24,11,37,14.20
2013,04,24,11,38,14.20
2013,04,24,11,39,14.10
2013,04,24,11,40,14.10
2013,04,24,11,41,14.10
2013,04,24,11,42,14.00
2013,04,24,11,43,14.10
2013,04,24,11,44,14.10
2013,04,24,11,45,14.10
2013,04,24,11,46,14.10
2013,04,24,11,47,14.10
2013,04,24,11,48,14.20
2013,04,24,11,49,14.20
2013,04,24,11,50,14.30
2013,04,24,11,51,14.40
2013,04,24,11,52,14.50
2013,04,24,11,53,14.50
2013,04,24,11,54,14.60
2013,04,24,11,55,14.60
2013,04,24,11,56,14.70
2013,04,24,11,57,14.80
2013,04,24,11,58,14.80
2013,04,24,11,59,14.90
2013,04,24,12,00,14.90
2013,04,24,12,01,14.90
2013,04,24,12,02,15.00
2013,04,24,12,03,15.00
2013,04,24,12,04,15.10
2013,04,24,12,05,15.10
2013,04,24,12,06,15.10
2013,04,24,12,07,15.20
2013,04,24,12,08,15.30
2013,04,24,12,09,15.40
2013,04,24,12,10,15.40
2013,04,24,12,11,15.50
2013,04,24,12,12,15.50
2013,04,24,12,13,15.60
2013,04,24,12,14,15.60
2013,04,24,12,15,15.60
2013,04,24,12,16,15.60
2013,04,24,12,17,15.60
2013,04,24,12,18,15.60
2013,04,24,12,19,15.60
2013,04,24,12,20,15.50
2013,04,24,12,21,15.50
2013,04,24,12,22,15.40
2013,04,24,12,23,15.40
2013,04,24,12,24,15.40
2013,04,24,12,25,15.50
2013,04,24,12,26,15.50
2013,04,24,12,27,15.60
2013,04,24,12,28,15.60
2013,04,24,12,29,15.60
2013,04,24,12,30,15.60
2013,04,24,12,31,15.60
2013,04,24,12,32,15.60
2013,04,24,12,33,15.50
2013,04,24,12,34,15.50
2013,04,24,12,35,15.40
2013,04,24,12,36,15.50
2013,04,24,12,37,15.50
2013,04,24,12,38,15.50
2013,04,24,12,39,15.50
2013,04,24,12,40,15.50
2013,04,24,12,41,15.50
2013,04,24,12,42,15.50
2013,04,24,12,43,15.60
2013,04,24,12,44,15.60
2013,04,24,12,45,15.60
2013,04,24,12,46,15.60
2013,04,24,12,47,15.70
2013,04,24,12,48,15.70
2013,04,24,12,49,15.80
2013,04,24,12,50,15.80
2013,04,24,12,51,15.80
2013,04,24,12,52,15.80
2013,04,24,12,53,15.90
2013,04,24,12,54,15.90
2013,04,24,12,55,15.90
2013,04,24,12,56,16.00
2013,04,24,12,57,16.10
2013,04,24,12,58,16.20
2013,04,24,12,59,16.20
2013,04,24,13,00,16.20
2013,04,24,13,01,16.20
2013,04,24,13,02,16.20
2013,04,24,13,03,16.20
2013,04,24,13,04,16.20
2013,04,24,13,05,16.20
2013,04,24,13,06,16.20
2013,04,24,13,07,16.10
2013,04,24,13,08,16.10
2013,04,24,13,09,16.20
2013,04,24,13,10,16.30
2013,04,24,13,11,16.30
2013,04,24,13,12,16.50
2013,04,24,13,13,16.50
2013,04,24,13,14,16.60
2013,04,24,13,15,16.70
2013,04,24,13,16,16.70
2013,04,24,13,17,16.80
2013,04,24,13,18,16.80
2013,04,24,13,19,16.80
2013,04,24,13,20,16.90
2013,04,24,13,21,16.90
2013,04,24,13,22,16.90
2013,04,24,13,23,16.80
2013,04,24,13,24,16.80
2013,04,24,13,25,16.70
2013,04,24,13,26,16.70
2013,04,24,13,27,16.70
2013,04,24,13,28,16.80
2013,04,24,13,29,16.80
2013,04,24,13,30,16.80
2013,04,24,13,31,16.80
2013,04,24,13,32,16.80
2013,04,24,13,33,16.90
2013,04,24,13,34,17.00
2013,04,24,13,35,17.00
2013,04,24,13,36,17.10
2013,04,24,13,37,17.20
2013,04,24,13,38,17.20
2013,04,24,13,39,17.20
2013,04,24,13,40,17.30
2013,04,24,13,41,17.30
2013,04,24,13,42,17.30
2013,04,24,13,43,17.30
2013,04,24,13,44,17.30
2013,04,24,13,45,17.30
2013,04,24,13,46,17.30
2013,04,24,13,47,17.30
2013,04,24,13,48,17.20
2013,04,24,13,49,17.20
2013,04,24,13,50,17.20
2013,04,24,13,51,17.20
2013,04,24,13,52,17.10
2013,04,24,13,53,17.00
2013,04,24,13,54,17.00
2013,04,24,13,55,16.90
2013,04,24,13,56,16.90
2013,04,24,13,57,16.90
2013,04,24,13,58,16.90
2013,04,24,13,59,16.90
2013,04,24,14,00,16.90
2013,04,24,14,01,16.90
2013,04,24,14,02,16.90
2013,04,24,14,03,16.80
2013,04,24,14,04,16.80
2013,04,24,14,05,16.80
2013,04,24,14,06,16.80
2013,04,24,14,07,16.70
2013,04,24,14,08,16.70
2013,04,24,14,09,16.70
2013,04,24,14,10,16.70
2013,04,24,14,11,16.70
2013,04,24,14,12,16.70
2013,04,24,14,13,16.80
2013,04,24,14,14,16.80
2013,04,24,14,15,16.90
2013,04,24,14,16,16.90
2013,04,24,14,17,16.90
2013,04,24,14,18,17.00
2013,04,24,14,19,17.00
2013,04,24,14,20,17.10
2013,04,24,14,21,17.10
2013,04,24,14,22,17.20
2013,04,24,14,23,17.20
2013,04,24,14,24,17.20
2013,04,24,14,25,17.20
2013,04,24,14,26,17.20
2013,04,24,14,27,17.20
2013,04,24,14,28,17.20
2013,04,24,14,29,17.10
2013,04,24,14,30,17.10
2013,04,24,14,31,17.10
2013,04,24,14,32,17.10
2013,04,24,14,33,17.00
2013,04,24,14,34,16.90
2013,04,24,14,35,16.90
2013,04,24,14,36,16.90
2013,04,24,14,37,16.90
2013,04,24,14,38,16.90
2013,04,24,14,39,17.00
2013,04,24,14,40,17.10
2013,04,24,14,41,17.20
2013,04,24,14,42,17.20
2013,04,24,14,43,17.30
2013,04,24,14,44,17.30
2013,04,24,14,45,17.40
2013,04,24,14,46,17.40
2013,04,24,14,47,17.50
2013,04,24,14,48,17.50
2013,04,24,14,49,17.60
2013,04,24,14,50,17.60
2013,04,24,14,51,17.60
2013,04,24,14,52,17.50
2013,04,24,14,53,17.50
2013,04,24,14,54,17.50
2013,04,24,14,55,17.60
2013,04,24,14,56,17.50
2013,04,24,14,57,17.40
2013,04,24,14,58,17.30
2013,04,24,14,59,17.30
2013,04,24,15,00,17.20
2013,04,24,15,01,17.10
2013,04,24,15,02,17.00
2013,04,24,15,03,16.90
2013,04,24,15,04,16.80
2013,04,24,15,05,16.70
2013,04,24,15,06,16.60
2013,04,24,15,07,16.60
2013,04,24,15,08,16.50
2013,04,24,15,09,16.50
2013,04,24,15,10,16.40
2013,04,24,15,11,16.50
2013,04,24,15,12,16.40
2013,04,24,15,13,16.40
2013,04,24,15,14,16.40
2013,04,24,15,15,16.40
2013,04,24,15,16,16.30
2013,04,24,15,17,16.30
2013,04,24,15,18,16.20
2013,04,24,15,19,16.20
2013,04,24,15,20,16.20
2013,04,24,15,21,16.20
2013,04,24,15,22,16.30
2013,04,24,15,23,16.40
2013,04,24,15,24,16.60
2013,04,24,15,25,16.70
2013,04,24,15,26,16.80
2013,04,24,15,27,17.00
2013,04,24,15,28,17.00
2013,04,24,15,29,17.10
2013,04,24,15,30,17.20
2013,04,24,15,31,17.20
2013,04,24,15,32,17.30
2013,04,24,15,33,17.30
2013,04,24,15,34,17.30
2013,04,24,15,35,17.40
2013,04,24,15,36,17.40
2013,04,24,15,37,17.40
2013,04,24,15,38,17.40
2013,04,24,15,39,17.50
2013,04,24,15,40,17.50
2013,04,24,15,41,17.50
2013,04,24,15,42,17.50
2013,04,24,15,43,17.50
2013,04,24,15,44,17.50
2013,04,24,15,45,17.60
2013,04,24,15,46,17.70
2013,04,24,15,47,17.70
2013,04,24,15,48,17.70
2013,04,24,15,49,17.60
2013,04,24,15,50,17.50
2013,04,24,15,51,17.40
2013,04,24,15,52,17.40
2013,04,24,15,53,17.40
2013,04,24,15,54,17.40
2013,04,24,15,55,17.30
2013,04,24,15,56,17.30
2013,04,24,15,57,17.20
2013,04,24,15,58,17.10
2013,04,24,15,59,17.00
2013,04,24,16,00,17.00
2013,04,24,16,01,16.90
2013,04,24,16,02,16.80
2013,04,24,16,03,16.80
2013,04,24,16,04,16.80
2013,04,24,16,05,16.80
2013,04,24,16,06,16.90
2013,04,24,16,07,17.00
2013,04,24,16,08,17.10
2013,04,24,16,09,17.30
2013,04,24,16,10,17.40
2013,04,24,16,11,17.50
2013,04,24,16,12,17.70
2013,04,24,16,13,17.80
2013,04,24,16,14,18.00
2013,04,24,16,15,18.00
2013,04,24,16,16,18.10
2013,04,24,16,17,18.10
2013,04,24,16,18,18.20
2013,04,24,16,19,18.30
2013,04,24,16,20,18.30
2013,04,24,16,21,18.30
2013,04,24,16,22,18.20
2013,04,24,16,23,18.00
2013,04,24,16,24,17.90
2013,04,24,16,25,17.90
2013,04,24,16,26,17.80
2013,04,24,16,27,17.90
2013,04,24,16,28,17.90
2013,04,24,16,29,17.90
2013,04,24,16,30,18.00
2013,04,24,16,31,18.10
2013,04,24,16,32,18.10
2013,04,24,16,33,18.20
2013,04,24,16,34,18.20
2013,04,24,16,35,18.20
2013,04,24,16,36,18.20
2013,04,24,16,37,18.10
2013,04,24,16,38,18.10
2013,04,24,16,39,18.10
2013,04,24,16,40,18.10
2013,04,24,16,41,18.10
2013,04,24,16,42,18.20
2013,04,24,16,43,18.20
2013,04,24,16,44,18.20
2013,04,24,16,45,18.20
2013,04,24,16,46,18.20
2013,04,24,16,47,18.20
2013,04,24,16,48,18.20
2013,04,24,16,49,18.10
2013,04,24,16,50,18.10
2013,04,24,16,51,18.00
2013,04,24,16,52,18.00
2013,04,24,16,53,18.00
2013,04,24,16,54,18.00
2013,04,24,16,55,17.90
2013,04,24,16,56,17.90
2013,04,24,16,57,17.90
2013,04,24,16,58,17.80
2013,04,24,16,59,17.80
2013,04,24,17,00,17.80
2013,04,24,17,01,17.80
2013,04,24,17,02,17.80
2013,04,24,17,03,17.70
2013,04,24,17,04,17.60
2013,04,24,17,05,17.60
2013,04,24,17,06,17.60
2013,04,24,17,07,17.70
2013,04,24,17,08,17.70
2013,04,24,17,09,17.70
2013,04,24,17,10,17.70
2013,04,24,17,11,17.60
2013,04,24,17,12,17.60
2013,04,24,17,13,17.50
2013,04,24,17,14,17.40
2013,04,24,17,15,17.40
2013,04,24,17,16,17.40
2013,04,24,17,17,17.40
2013,04,24,17,18,17.40
2013,04,24,17,19,17.40
2013,04,24,17,20,17.40
2013,04,24,17,21,17.30
2013,04,24,17,22,17.30
2013,04,24,17,23,17.40
2013,04,24,17,24,17.40
2013,04,24,17,25,17.40
2013,04,24,17,26,17.40
2013,04,24,17,27,17.40
2013,04,24,17,28,17.40
2013,04,24,17,29,17.40
2013,04,24,17,30,17.30
2013,04,24,17,31,17.30
2013,04,24,17,32,17.30
2013,04,24,17,33,17.30
2013,04,24,17,34,17.30